When you browse on this site, cookies collect data to enhance your experience and personalize the content and advertising you see.
Visit our Privacy Policy to learn more. By continuing to use the site, you agree to this use of cookies and data.
  • In Portugal
  • List of Countries
  • For 7 days
  • Water Temperature
  • Satellite Maps
  • Weather Map
  • Weather Widgets
  • user-avatar
    Login

    Hourly Weather Bahmahi

    Today, 19 June, Wednesday

    Time Temperature Precipitation Wind Pressure Humidity
    00:00 +16°C° 0 mm 2 mps 664 mmHg 72%
    01:00 +15°C° 0 mm 2 mps 664 mmHg 71%
    02:00 +15°C° 0 mm 2 mps 663 mmHg 70%
    03:00 +15°C° 0 mm 2 mps 663 mmHg 69%
    04:00 +16°C° 0 mm 2 mps 664 mmHg 67%
    05:00 +18°C° 0 mm 1 mps 664 mmHg 66%
    06:00 +20°C° 0 mm 1 mps 665 mmHg 64%
    07:00 +21°C° 0 mm 1 mps 665 mmHg 58%
    08:00 +23°C° 0 mm 2 mps 665 mmHg 51%
    09:00 +24°C° 0 mm 2 mps 666 mmHg 44%
    10:00 +25°C° 0 mm 3 mps 666 mmHg 44%
    11:00 +25°C° 0 mm 3 mps 666 mmHg 43%
    12:00 +26°C° 0 mm 4 mps 666 mmHg 42%
    13:00 +26°C° 0.1 mm 4 mps 666 mmHg 43%
    14:00 +25°C° 0.1 mm 4 mps 666 mmHg 44%
    15:00 +25°C° 0.1 mm 3 mps 666 mmHg 44%
    16:00 +24°C° 0.1 mm 3 mps 665 mmHg 49%
    17:00 +23°C° 0.1 mm 2 mps 665 mmHg 53%
    18:00 +22°C° 0.1 mm 1 mps 665 mmHg 58%
    19:00 +21°C° 0 mm 1 mps 665 mmHg 61%
    20:00 +20°C° 0 mm 1 mps 664 mmHg 63%
    21:00 +18°C° 0 mm 1 mps 664 mmHg 66%
    22:00 +18°C° 0 mm 1 mps 664 mmHg 67%
    23:00 +18°C° 0 mm 1 mps 664 mmHg 67%

    Tomorrow, 20 June, Thursday

    Time Temperature Precipitation Wind Pressure Humidity
    00:00 +18°C° 0 mm 1 mps 664 mmHg 68%
    01:00 +16°C° 0 mm 1 mps 664 mmHg 68%
    02:00 +16°C° 0 mm 1 mps 664 mmHg 67%
    03:00 +16°C° 0 mm 2 mps 663 mmHg 67%
    04:00 +18°C° 0 mm 1 mps 664 mmHg 66%
    05:00 +19°C° 0 mm 1 mps 664 mmHg 64%
    06:00 +20°C° 0 mm 1 mps 665 mmHg 63%
    07:00 +22°C° 0 mm 1 mps 665 mmHg 58%
    08:00 +23°C° 0 mm 2 mps 665 mmHg 52%
    09:00 +25°C° 0 mm 2 mps 666 mmHg 47%
    10:00 +25°C° 0.1 mm 3 mps 666 mmHg 46%
    11:00 +26°C° 0.1 mm 3 mps 665 mmHg 44%
    12:00 +26°C° 0.1 mm 4 mps 665 mmHg 43%
    13:00 +26°C° 0.2 mm 3 mps 665 mmHg 44%
    14:00 +25°C° 0.2 mm 3 mps 665 mmHg 44%
    15:00 +25°C° 0.2 mm 3 mps 664 mmHg 45%
    16:00 +24°C° 0.2 mm 2 mps 664 mmHg 49%
    17:00 +23°C° 0.2 mm 2 mps 664 mmHg 52%
    18:00 +22°C° 0.2 mm 1 mps 664 mmHg 56%
    19:00 +21°C° 0.1 mm 1 mps 664 mmHg 58%
    20:00 +19°C° 0.1 mm 1 mps 664 mmHg 61%
    21:00 +18°C° 0.1 mm 1 mps 664 mmHg 63%
    22:00 +16°C° 0 mm 1 mps 664 mmHg 63%
    23:00 +16°C° 0 mm 1 mps 664 mmHg 63%

    Day after tomorrow, 21 June, Friday

    Time Temperature Precipitation Wind Pressure Humidity
    00:00 +16°C° 0 mm 2 mps 663 mmHg 63%
    01:00 +16°C° 0 mm 2 mps 663 mmHg 62%
    02:00 +16°C° 0 mm 2 mps 663 mmHg 61%
    03:00 +16°C° 0 mm 2 mps 663 mmHg 61%
    04:00 +17°C° 0 mm 2 mps 663 mmHg 59%
    05:00 +18°C° 0 mm 2 mps 664 mmHg 58%
    06:00 +19°C° 0 mm 2 mps 664 mmHg 56%
    07:00 +20°C° 0 mm 2 mps 665 mmHg 52%
    08:00 +23°C° 0 mm 2 mps 665 mmHg 47%
    09:00 +25°C° 0 mm 2 mps 666 mmHg 42%
    10:00 +25°C° 0 mm 3 mps 666 mmHg 43%
    11:00 +25°C° 0 mm 3 mps 666 mmHg 43%
    12:00 +26°C° 0 mm 4 mps 666 mmHg 44%
    13:00 +26°C° 0 mm 4 mps 666 mmHg 45%
    14:00 +25°C° 0 mm 4 mps 666 mmHg 46%
    15:00 +25°C° 0 mm 4 mps 666 mmHg 47%
    16:00 +24°C° 0 mm 3 mps 666 mmHg 52%
    17:00 +23°C° 0 mm 2 mps 666 mmHg 56%
    18:00 +21°C° 0 mm 2 mps 665 mmHg 60%
    19:00 +20°C° 0 mm 2 mps 665 mmHg 63%
    20:00 +18°C° 0 mm 2 mps 665 mmHg 67%
    21:00 +17°C° 0 mm 2 mps 665 mmHg 70%
    22:00 +16°C° 0 mm 2 mps 665 mmHg 70%
    23:00 +16°C° 0 mm 2 mps 665 mmHg 69%

    22 June, Saturday

    Time Temperature Precipitation Wind Pressure Humidity
    00:00 +16°C° 0 mm 2 mps 665 mmHg 68%
    01:00 +16°C° 0 mm 2 mps 665 mmHg 67%
    02:00 +16°C° 0 mm 2 mps 664 mmHg 65%
    03:00 +16°C° 0 mm 2 mps 664 mmHg 63%
    04:00 +17°C° 0 mm 2 mps 665 mmHg 62%
    05:00 +18°C° 0 mm 2 mps 665 mmHg 60%
    06:00 +19°C° 0 mm 2 mps 666 mmHg 58%
    07:00 +21°C° 0 mm 2 mps 666 mmHg 53%
    08:00 +24°C° 0 mm 2 mps 667 mmHg 47%
    09:00 +25°C° 0 mm 2 mps 667 mmHg 42%
    10:00 +26°C° 0 mm 2 mps 667 mmHg 42%
    11:00 +27°C° 0 mm 3 mps 667 mmHg 42%
    12:00 +27°C° 0 mm 3 mps 667 mmHg 42%
    13:00 +27°C° 0 mm 3 mps 667 mmHg 42%
    14:00 +27°C° 0 mm 3 mps 667 mmHg 43%
    15:00 +26°C° 0 mm 2 mps 667 mmHg 45%
    16:00 +26°C° 0.1 mm 2 mps 666 mmHg 49%
    17:00 +25°C° 0.1 mm 1 mps 666 mmHg 53%
    18:00 +25°C° 0.1 mm 1 mps 666 mmHg 57%
    19:00 +23°C° 0.1 mm 1 mps 666 mmHg 60%
    20:00 +22°C° 0.1 mm 1 mps 666 mmHg 63%
    21:00 +20°C° 0.1 mm 1 mps 666 mmHg 65%
    22:00 +20°C° 0 mm 1 mps 666 mmHg 66%
    23:00 +19°C° 0 mm 1 mps 665 mmHg 67%

    23 June, Sunday

    Time Temperature Precipitation Wind Pressure Humidity
    00:00 +18°C° 0 mm 2 mps 665 mmHg 68%
    01:00 +18°C° 0 mm 2 mps 665 mmHg 68%
    02:00 +17°C° 0 mm 2 mps 665 mmHg 67%
    03:00 +17°C° 0 mm 2 mps 665 mmHg 67%
    04:00 +18°C° 0 mm 2 mps 665 mmHg 65%
    05:00 +20°C° 0 mm 2 mps 666 mmHg 64%
    06:00 +21°C° 0 mm 2 mps 666 mmHg 62%
    07:00 +23°C° 0 mm 2 mps 667 mmHg 56%
    08:00 +25°C° 0 mm 2 mps 667 mmHg 49%
    09:00 +26°C° 0 mm 2 mps 667 mmHg 43%
    10:00 +27°C° 0.1 mm 2 mps 667 mmHg 43%
    11:00 +27°C° 0.1 mm 2 mps 668 mmHg 43%
    12:00 +28°C° 0.1 mm 3 mps 668 mmHg 42%
    13:00 +28°C° 0.1 mm 3 mps 667 mmHg 43%
    14:00 +27°C° 0.1 mm 3 mps 667 mmHg 43%
    15:00 +27°C° 0.1 mm 2 mps 667 mmHg 44%
    16:00 +27°C° 0.1 mm 2 mps 667 mmHg 47%
    17:00 +26°C° 0.1 mm 1 mps 667 mmHg 50%
    18:00 +25°C° 0.1 mm 1 mps 666 mmHg 53%
    19:00 +24°C° 0.1 mm 1 mps 666 mmHg 55%
    20:00 +22°C° 0.1 mm 1 mps 666 mmHg 57%
    21:00 +21°C° 0.1 mm 1 mps 666 mmHg 59%
    22:00 +20°C° 0 mm 1 mps 666 mmHg 59%
    23:00 +19°C° 0 mm 2 mps 665 mmHg 60%

    24 June, Monday

    Time Temperature Precipitation Wind Pressure Humidity
    00:00 +19°C° 0 mm 2 mps 665 mmHg 60%
    01:00 +18°C° 0 mm 2 mps 665 mmHg 60%
    02:00 +18°C° 0 mm 2 mps 665 mmHg 60%
    03:00 +18°C° 0 mm 2 mps 665 mmHg 60%
    04:00 +19°C° 0 mm 2 mps 665 mmHg 59%
    05:00 +21°C° 0 mm 1 mps 666 mmHg 58%
    06:00 +22°C° 0 mm 1 mps 666 mmHg 58%
    07:00 +24°C° 0 mm 1 mps 667 mmHg 53%
    08:00 +25°C° 0 mm 1 mps 667 mmHg 48%
    09:00 +26°C° 0 mm 2 mps 667 mmHg 44%
    10:00 +26°C° 0.1 mm 2 mps 667 mmHg 44%
    11:00 +26°C° 0.1 mm 2 mps 667 mmHg 44%
    12:00 +27°C° 0.1 mm 2 mps 667 mmHg 44%
    13:00 +26°C° 0.1 mm 2 mps 667 mmHg 45%
    14:00 +26°C° 0.1 mm 2 mps 667 mmHg 46%
    15:00 +26°C° 0.1 mm 2 mps 667 mmHg 46%
    16:00 +25°C° 0.1 mm 1 mps 666 mmHg 51%
    17:00 +25°C° 0.1 mm 1 mps 666 mmHg 55%
    18:00 +24°C° 0.1 mm 1 mps 666 mmHg 59%
    19:00 +22°C° 0.3 mm 1 mps 666 mmHg 62%
    20:00 +21°C° 0.3 mm 1 mps 666 mmHg 65%
    21:00 +20°C° 0.3 mm 1 mps 666 mmHg 68%
    22:00 +20°C° 0.1 mm 1 mps 666 mmHg 68%
    23:00 +19°C° 0.1 mm 2 mps 666 mmHg 68%
    Show more